Theta_e
322 316 311 314 305 303 298 302 313 310 309 313 315 313 310 312 310 304 321 321 320 321 324 326 330 331 331 331 332 332 332 332 332 330 329 327 326 325 324 323 323 324 325 326 326 326 326 325 324
319 317 313 309 300 296 298 308 307 310 313 314 314 313 310 309 317 317 318 319 318 318 322 324 328 328 328 327 326 326 326 325 325 324 324 323 323 323 323 322 321 322 323 324 325 325 324 323 323
316 315 305 306 302 299 300 306 305 308 311 311 310 313 312 311 316 317 320 319 318 317 320 322 326 326 326 326 325 324 324 323 323 322 322 321 320 320 320 320 320 320 321 323 323 323 322 322 321
307 306 306 299 294 295 299 300 308 307 309 311 311 307 313 318 317 320 321 321 318 316 318 320 322 323 323 323 323 322 322 322 321 321 320 320 319 319 318 318 317 318 319 320 321 321 320 320 319
306 303 297 292 292 294 297 301 303 305 305 308 309 307 309 317 320 320 319 318 316 316 316 316 319 320 321 320 320 321 320 320 320 319 319 319 317 317 317 317 317 318 319 319 319 318 318 318 318
303 302 294 289 291 294 296 298 302 305 305 306 308 308 310 318 316 317 319 317 317 311 311 312 316 319 319 317 316 317 317 317 317 317 317 317 317 316 316 317 316 316 317 318 318 318 318 317 317
301 298 292 291 292 292 295 299 298 299 304 305 308 306 311 315 317 317 317 317 310 309 308 306 308 310 312 314 315 315 315 315 315 316 315 315 315 316 315 314 314 315 316 316 316 316 316 316 317
300 300 293 292 292 290 294 296 302 302 303 309 309 304 305 314 317 316 312 309 307 305 304 302 303 303 303 305 315 314 314 314 314 310 308 308 309 309 308 307 310 313 313 313 314 315 315 315 315
303 296 290 288 290 290 294 295 302 304 303 305 309 308 315 317 318 311 307 307 304 303 299 298 299 300 300 304 305 309 310 311 306 301 302 300 300 298 297 301 304 305 305 306 308 307 308 307 307
298 290 289 290 289 289 292 292 295 297 300 302 304 311 315 317 311 308 306 302 299 298 297 295 295 296 297 301 300 299 301 301 298 294 293 295 295 294 295 296 299 301 301 302 303 302 301 298 294
293 290 292 292 293 292 293 291 293 291 291 298 302 307 308 309 310 308 301 300 298 296 295 294 293 294 293 294 294 293 294 293 294 292 291 292 292 290 289 289 289 290 295 292 292 290 291 291 292
291 294 294 294 294 292 290 291 290 292 292 302 303 308 307 306 305 302 299 297 296 294 293 292 291 291 291 292 291 291 291 291 291 290 291 289 288 287 287 287 287 288 289 287 287 288 289 290 291
291 291 294 293 293 291 292 289 289 289 294 301 305 306 304 304 300 299 299 298 295 292 291 289 289 289 290 290 289 290 289 289 289 289 290 289 287 286 286 286 286 287 287 286 287 287 287 288 289
293 292 292 293 292 292 289 288 289 289 292 300 303 303 303 302 300 297 297 294 292 292 290 289 288 289 289 288 288 288 288 288 289 288 288 289 288 286 286 285 286 286 286 287 286 286 286 287 287
293 290 290 290 292 291 290 288 288 290 298 299 301 301 302 300 298 296 294 292 290 290 290 289 288 289 288 287 288 288 288 289 288 288 288 288 288 286 285 285 285 286 286 286 286 286 286 286 287
291 291 286 291 292 291 290 283 291 290 295 295 297 299 300 299 297 295 293 291 289 288 287 288 290 288 287 287 287 287 288 287 286 287 287 288 288 287 285 284 284 285 286 285 285 284 284 284 284
287 280 285 286 291 288 288 284 289 290 291 290 292 295 298 298 295 293 291 289 288 287 286 286 287 286 286 287 287 286 286 286 285 285 286 286 287 287 285 284 284 285 284 284 284 283 283 282 282
279 280 283 282 286 285 283 284 287 288 289 289 289 291 295 296 295 294 290 289 288 286 286 286 286 286 286 286 284 285 284 285 285 285 286 287 286 286 285 284 283 284 283 283 283 282 282 282 281
283 280 280 284 285 283 281 282 286 288 287 286 287 289 291 295 296 293 290 288 286 286 286 285 285 284 284 282 281 282 281 282 283 284 286 285 285 286 285 284 283 283 282 282 282 281 280 280 281
283 280 279 282 285 283 281 283 285 286 284 284 284 285 288 293 292 290 288 287 286 286 286 285 285 284 284 284 283 282 281 282 283 284 284 284 285 285 284 283 282 282 281 281 281 280 279 279 280
281 279 277 278 282 283 281 281 286 286 285 286 286 286 289 292 291 288 288 286 285 285 284 284 284 285 284 284 284 283 282 281 281 282 282 283 283 283 283 282 282 281 281 280 280 280 279 277 278
278 282 281 280 277 274 281 276 281 284 284 285 286 285 287 287 292 291 289 287 286 285 284 284 285 285 285 284 282 280 278 278 279 280 281 281 282 281 282 281 281 280 280 279 279 281 279 278 276
280 283 280 280 276 276 278 273 281 284 282 283 284 285 284 286 288 289 289 288 285 283 283 283 284 285 284 282 281 279 278 279 279 279 278 278 279 280 280 280 279 279 278 278 278 278 278 278 277
284 281 280 278 276 272 272 273 280 282 283 283 283 283 284 284 285 286 286 285 283 283 282 283 283 282 282 280 280 279 277 276 276 276 276 277 277 277 278 278 278 277 277 276 276 277 276 276 276
281 279 272 274 274 276 266 273 281 284 282 283 283 282 282 283 283 283 282 282 281 281 281 281 280 279 280 279 278 278 277 276 275 275 275 274 275 275 275 276 275 274 275 275 275 275 274 274 274
279 277 273 269 271 275 268 274 282 283 283 283 283 283 283 282 282 281 281 280 280 279 278 278 278 278 278 277 277 277 276 275 275 275 274 274 274 273 274 273 273 273 273 272 273 272 273 273 272
280 275 278 269 261 268 275 281 285 282 281 282 282 282 281 280 281 280 279 279 278 277 277 277 276 276 276 276 276 275 274 274 273 273 273 273 273 273 272 272 270 270 271 271 270 270 270 270 271
280 280 275 273 269 269 273 274 280 279 278 279 281 281 280 278 278 278 278 277 277 277 277 276 276 275 275 275 274 274 273 273 272 272 271 271 271 271 269 269 269 269 269 269 269 268 268 268 269
276 275 275 276 276 269 268 276 282 280 279 278 277 281 272 272 276 276 276 276 276 276 275 274 274 274 274 273 273 273 272 272 271 270 270 269 269 268 268 268 268 267 267 268 267 267 268 267 268
279 280 278 274 272 272 272 274 280 276 276 276 278 279 275 271 274 275 275 275 275 274 273 273 273 273 273 272 272 271 271 270 269 269 268 268 267 267 267 267 266 266 267 266 266 266 267 267 268
Wind_Speed
9 9 3 4 5 5 2 5 8 5 5 5 4 10 9 5 4 4 6 7 7 7 8 10 16 16 16 16 16 15 15 16 15 14 13 12 12 12 12 12 12 13 12 12 12 12 12 12 12
5 5 4 2 5 4 2 9 13 7 6 9 10 4 6 4 3 5 4 4 4 6 6 8 13 15 16 16 16 15 14 14 13 12 11 11 11 11 12 13 13 13 13 13 13 13 13 13 13
3 2 4 3 4 3 4 5 7 5 8 3 5 6 3 3 2 3 4 2 1 3 4 8 14 15 15 14 14 13 12 11 11 10 10 10 10 10 11 11 12 12 13 13 13 14 14 14 14
3 4 5 7 7 5 5 3 6 5 6 8 6 7 4 2 2 3 4 3 3 3 4 7 10 12 12 12 12 12 11 11 11 12 12 12 12 12 12 13 13 14 14 14 14 14 14 14 15
3 3 6 5 6 2 5 5 3 5 5 4 3 6 5 3 6 5 4 3 4 3 4 3 9 9 10 10 11 11 11 11 11 12 12 12 11 11 11 13 13 14 15 15 16 16 16 16 15
5 3 5 5 4 2 3 6 2 5 3 1 5 7 4 7 6 5 5 5 4 5 6 7 9 10 7 8 9 9 9 9 9 10 13 13 11 10 11 14 12 15 15 15 15 16 16 17 17
4 4 3 6 6 3 1 4 4 2 2 1 0 5 4 7 7 6 5 5 6 6 7 6 6 7 8 4 7 6 8 9 10 13 16 18 16 15 15 16 16 16 16 16 16 16 15 16 17
3 5 3 4 5 3 1 1 1 3 3 1 2 4 5 8 7 5 4 4 6 6 6 6 7 7 7 6 11 4 8 6 14 15 17 17 17 17 18 17 17 17 18 18 17 18 19 20 20
2 6 3 2 2 3 2 2 1 2 4 2 1 3 4 10 8 5 4 3 3 6 6 6 7 7 7 6 8 9 11 13 12 12 15 10 5 7 10 16 18 18 17 17 18 19 20 21 18
7 5 3 1 1 2 2 1 1 1 4 4 3 5 7 11 6 7 6 5 4 4 6 6 6 6 6 6 6 6 6 5 5 6 7 6 7 8 11 13 19 19 18 18 18 19 19 14 7
4 4 4 1 1 3 2 2 3 3 5 6 9 11 9 8 8 6 5 5 5 5 5 6 6 6 7 6 4 3 3 4 4 6 6 6 6 5 5 4 5 5 12 5 9 10 7 10 6
6 3 2 2 2 3 3 6 4 7 6 5 5 11 9 9 7 7 7 5 5 6 5 5 6 6 5 2 4 4 4 4 3 4 5 4 3 4 4 4 6 5 5 6 5 6 9 10 11
4 2 3 2 1 2 5 6 7 8 6 5 7 7 8 7 7 6 7 6 6 6 4 4 4 4 5 5 4 4 3 3 3 3 4 4 4 4 4 5 5 6 5 5 7 7 9 9 10
3 4 3 3 2 2 3 5 3 7 8 7 8 7 5 6 8 6 5 5 6 5 4 3 3 5 5 3 5 3 3 3 4 4 4 5 4 4 4 4 5 6 5 7 6 8 9 9 10
4 2 1 3 2 3 3 6 9 6 7 7 8 7 6 6 7 7 5 5 5 3 4 3 2 4 6 5 4 4 3 3 3 3 4 3 3 3 4 4 4 6 7 10 8 9 9 8 7
1 2 5 0 6 3 4 10 7 1 9 8 7 6 8 8 10 9 8 7 6 4 3 2 2 3 5 5 4 4 4 3 4 4 4 4 5 4 4 4 4 6 7 6 8 8 9 9 10
8 2 4 6 4 5 0 11 5 3 5 9 8 8 9 7 6 7 8 8 7 5 2 1 2 3 4 5 4 5 6 4 4 4 4 6 5 5 4 4 4 6 6 6 6 8 8 10 10
4 4 6 4 7 3 7 22 13 10 11 11 10 9 8 9 11 9 9 8 7 5 3 0 2 4 4 4 4 4 4 4 4 5 5 6 4 6 5 4 5 7 5 6 6 9 8 9 10
4 3 5 5 5 8 5 18 22 15 8 9 9 8 7 10 6 7 7 7 7 5 3 2 2 3 4 2 2 2 3 4 4 4 6 6 7 6 8 6 6 6 7 7 8 8 10 9 9
2 3 5 7 4 4 7 22 10 3 1 2 1 6 6 5 7 6 7 7 7 5 4 3 4 3 2 1 2 2 3 3 4 4 6 8 7 8 11 8 11 10 6 10 7 7 8 9 7
3 2 2 6 9 3 8 8 4 2 1 1 4 3 5 6 7 7 7 7 6 6 4 5 3 3 3 4 3 3 3 3 4 6 7 6 9 11 11 13 8 10 11 9 10 8 9 10 8
4 3 1 5 7 3 5 6 7 2 1 3 5 6 4 4 4 6 7 6 5 3 6 5 4 3 4 6 4 5 3 6 5 7 6 8 7 10 10 12 12 12 10 11 10 11 10 11 12
5 1 2 0 1 4 3 4 10 4 2 2 5 6 7 7 4 3 5 5 6 6 6 4 3 5 6 5 6 5 5 6 6 7 9 10 9 10 12 12 13 10 9 12 13 13 12 11 12
5 3 2 2 3 5 3 5 9 2 2 4 4 5 5 6 6 7 6 6 6 4 4 7 8 6 6 6 7 8 8 9 9 10 9 9 9 9 11 12 11 12 11 13 13 13 14 13 13
7 6 6 8 6 6 3 2 12 5 2 4 7 4 7 6 7 7 8 7 7 7 7 6 6 6 7 7 8 8 10 8 11 11 10 13 10 9 11 13 13 12 14 13 14 14 14 14 13
4 4 6 4 3 6 3 7 7 2 4 6 7 8 7 6 6 7 7 6 6 7 7 7 8 7 8 8 9 8 9 7 8 10 10 9 9 10 14 14 14 15 15 14 14 12 12 14 13
3 3 3 4 2 5 5 9 7 4 6 4 6 5 4 5 6 6 5 6 6 7 8 7 7 7 8 8 8 9 9 9 9 11 10 9 11 11 14 14 15 15 15 14 15 11 14 14 14
2 1 4 4 5 8 7 7 9 5 6 3 4 4 3 1 3 4 4 5 6 6 6 8 8 7 7 8 8 9 8 10 10 10 12 13 12 13 14 15 14 15 15 14 14 12 13 14 11
3 2 3 3 4 5 5 10 7 7 9 9 8 7 4 3 1 2 3 5 5 6 7 6 6 7 8 8 9 9 9 10 10 10 11 12 13 13 14 14 14 15 15 14 14 14 15 15 15
1 4 4 6 8 4 3 15 3 6 6 6 7 4 3 3 2 0 3 4 4 4 5 5 6 7 8 8 9 10 10 10 10 11 12 12 13 13 14 14 14 14 14 14 14 15 15 14 15
Wind_Direction
324 305 308 28 59 65 22 65 84 45 55 43 16 79 105 48 39 129 127 35 15 3 11 32 44 47 50 47 43 40 36 36 35 34 29 24 19 15 13 9 8 4 0 358 355 355 354 352 351
326 323 33 54 77 57 338 89 88 80 129 115 89 93 50 84 51 108 131 15 32 353 20 32 44 45 43 42 40 37 35 33 30 27 23 19 13 10 7 6 1 357 355 352 349 348 348 347 343
289 208 71 85 65 78 88 79 109 79 69 90 98 50 87 93 90 98 139 142 50 41 34 38 43 45 41 39 37 34 34 32 29 26 22 16 13 11 5 1 357 355 351 347 345 342 342 339 337
12 19 19 85 103 3 107 76 95 93 32 77 112 77 93 81 128 131 162 176 198 136 78 52 45 43 41 36 31 25 23 22 20 16 12 8 7 7 3 359 357 355 349 345 341 338 336 334 331
38 66 64 74 48 46 16 14 54 100 106 29 150 162 140 129 132 144 154 145 125 104 113 66 41 35 38 37 33 24 21 20 20 17 12 7 3 2 1 359 357 355 348 344 340 336 334 330 326
17 87 85 116 118 102 351 10 58 102 122 75 83 134 157 137 155 182 180 189 122 90 51 33 21 32 32 35 34 29 19 19 18 15 10 3 357 349 1 356 355 346 344 340 338 333 330 327 324
101 71 106 111 132 90 243 329 61 348 125 234 265 137 129 177 177 189 180 147 107 79 62 37 24 13 10 8 35 36 20 22 22 24 11 4 13 7 5 359 347 347 348 343 339 334 331 324 324
92 92 87 70 164 186 237 70 8 77 228 111 30 183 196 179 172 148 142 178 112 89 74 43 21 12 354 352 13 19 2 19 40 32 19 11 11 16 17 7 359 359 350 345 339 344 339 336 330
358 62 67 31 149 185 228 190 260 244 132 78 52 109 110 133 151 153 209 184 105 79 59 45 22 10 358 7 9 20 27 45 52 39 24 8 9 10 12 1 360 357 352 350 347 343 342 338 339
59 86 186 268 164 158 202 18 209 237 192 197 101 125 140 148 168 192 200 131 92 64 61 51 26 16 3 3 9 16 21 28 47 42 27 10 16 10 6 359 356 353 349 350 349 343 339 334 321
17 128 172 272 342 349 335 266 221 229 250 198 200 177 164 170 196 198 117 118 115 107 70 53 28 17 15 10 8 8 12 17 21 37 36 22 10 2 356 348 345 341 342 346 350 341 332 319 310
89 46 58 12 347 318 299 311 268 202 228 139 65 164 166 175 189 126 110 114 106 82 67 50 35 20 12 6 11 12 20 11 18 20 34 30 7 356 348 347 335 336 331 336 339 329 314 309 309
78 164 107 192 339 286 320 256 244 253 208 152 117 122 171 178 125 124 121 107 97 91 79 46 56 26 -0 21 6 10 12 13 353 13 14 33 18 353 345 341 335 331 326 326 327 319 314 309 308
118 117 153 221 270 269 305 270 8 270 167 172 155 181 210 180 158 122 130 137 106 120 105 45 46 37 22 14 1 350 354 356 355 357 357 22 22 353 345 332 328 325 320 320 310 316 309 309 307
144 50 225 238 267 285 309 290 229 238 152 167 189 191 206 148 136 127 123 121 99 95 98 47 64 47 26 2 349 343 322 355 354 328 351 6 1 337 328 324 324 324 321 316 316 315 309 304 305
13 33 6 289 4 18 36 275 288 300 160 207 218 207 203 191 166 157 156 132 137 115 105 105 55 65 26 353 346 343 347 346 350 339 321 324 325 331 325 319 309 309 315 307 316 313 311 310 308
12 334 329 333 44 334 136 278 292 129 183 233 230 223 212 194 168 166 158 151 140 118 120 44 39 60 23 8 357 1 352 359 329 332 313 303 314 326 307 299 290 299 300 305 302 311 306 307 305
331 341 325 289 342 351 270 268 285 259 246 240 227 232 209 202 194 170 159 150 138 146 153 278 62 49 28 15 357 352 343 330 325 319 301 331 327 313 311 295 286 296 286 293 297 298 300 297 300
282 297 308 293 10 342 264 283 295 296 265 262 227 228 223 208 176 169 150 145 147 166 176 137 60 36 40 6 343 321 313 313 322 304 324 340 330 327 321 307 301 292 282 284 286 295 300 303 304
291 333 330 290 321 348 313 299 296 286 135 111 117 227 234 144 143 152 155 165 173 168 180 153 84 48 25 9 312 314 320 312 300 313 340 324 329 321 318 321 314 304 296 303 286 284 295 292 298
24 121 2 251 321 268 303 299 329 235 356 50 47 57 54 160 172 174 180 193 179 185 188 111 93 46 -0 1 346 336 306 303 316 332 328 326 327 326 325 320 320 320 312 307 302 289 285 295 296
325 127 285 306 13 285 25 276 305 287 92 21 34 38 26 41 136 176 193 192 176 162 121 118 96 45 25 19 5 348 331 332 329 321 320 321 325 321 322 321 318 313 312 310 312 311 309 302 299
250 326 225 142 86 22 323 73 265 270 171 80 54 59 35 19 56 131 117 97 111 125 129 135 91 46 36 20 12 3 348 330 327 325 326 323 323 322 319 315 315 317 325 313 310 313 311 304 297
303 35 92 66 93 14 274 103 283 240 175 151 85 61 51 33 57 75 82 110 99 89 62 48 49 38 27 23 7 1 351 340 337 333 327 328 325 319 318 316 322 322 325 319 311 309 310 307 302
31 36 344 355 6 232 333 30 248 269 16 135 147 121 66 52 55 57 58 56 61 59 48 53 40 26 20 13 9 4 353 346 335 333 330 326 324 327 331 332 334 323 318 324 319 314 309 303 297
9 111 140 271 287 284 6 240 253 130 110 117 114 111 89 57 40 56 63 65 59 56 46 38 30 20 11 13 6 356 354 339 336 334 332 326 331 328 331 333 326 330 328 327 318 310 310 311 307
302 59 137 95 83 44 258 282 293 88 20 86 108 90 74 45 38 57 48 48 52 54 39 31 25 14 17 9 1 349 341 343 337 335 331 333 327 329 328 332 327 318 319 329 328 316 313 317 317
98 122 35 8 338 304 287 280 246 267 233 272 123 199 209 47 44 51 50 51 58 45 31 33 21 10 6 1 353 341 341 341 337 336 333 331 326 330 328 324 326 323 323 321 323 318 313 306 304
21 6 28 132 145 204 301 266 221 216 192 180 218 238 218 266 102 55 60 65 64 43 23 22 10 1 357 354 337 338 341 342 337 332 332 327 330 326 327 324 326 323 320 323 323 312 306 312 303
172 198 164 125 276 229 165 266 207 228 196 178 223 228 189 201 186 128 77 53 50 26 16 11 357 352 345 342 332 337 338 336 332 330 326 333 324 326 322 325 320 320 325 320 314 313 302 302 303